Regional Weather Roundup
Issued by NWS

Home | Current Version | Previous Version | Text Only | Print | Product List | Glossary On
Versions: 1 2 3 4 5 6 7 8 9 10 11 12 13 14 15 16 17 18 19 20 21 22 23 24 25 26 27 28 29 30 31 32 33 34 35 36 37 38 39 40 41 42 43 44 45 46 47 48 49 50
000
ASUS43 KDTX 270001
RWRMI
MICHIGAN HOURLY REGIONAL WEATHER ROUNDUP
NATIONAL WEATHER SERVICE DETROIT/PONTIAC MI
800 PM EDT TUE JUL 26 2016

NOTE: "FAIR" INDICATES FEW OR NO CLOUDS BELOW 12,000 FEET WITH NO
SIGNIFICANT WEATHER AND/OR OBSTRUCTION TO VISIBILITY.

MIZ047>049-052>055-059>063-066>070-074>076-081>083-270100-
SOUTHEAST LOWER MICHIGAN

CITY           SKY/WX    TMP DP  RH WIND       PRES   REMARKS
ADRIAN         CLEAR     82  60  47 SW7       30.02R
6HR MIN TEMP:  82; 6HR MAX TEMP:  86;

ALMA           SUNNY     84  62  47 CALM      29.99R
ANN ARBOR      MOCLDY    85  59  41 W7        29.99R
BAD AXE        CLEAR     78  58  51 SE5       29.98S
6HR MIN TEMP:  78; 6HR MAX TEMP:  86;

CARO           CLEAR     84  59  41 CALM      29.97S
DETROIT CITY   CLEAR     81  62  52 S9        29.99R
6HR MIN TEMP:  81; 6HR MAX TEMP:  85;

DETROIT        PTCLDY    83  61  47 S9        30.00R
6HR MIN TEMP:  82; 6HR MAX TEMP:  88;

FLINT          PTCLDY    87  61  41 W9        29.99R
6HR MIN TEMP:  85; 6HR MAX TEMP:  92;

GROSSE ILE     CLEAR     79  63  58 S9        29.99R
6HR MIN TEMP:  79; 6HR MAX TEMP:  81;

HOWELL         CLEAR     83  58  42 W5        30.01R
6HR MIN TEMP:  82; 6HR MAX TEMP:  87;


CITY           SKY/WX    TMP DP  RH WIND       PRES   REMARKS
JACKSON        CLEAR     82  59  45 CALM      30.02R
6HR MIN TEMP:  79; 6HR MAX TEMP:  85;

LAMBERTVILLE   CLEAR     84  58  41 CALM      30.01R
6HR MIN TEMP:  83; 6HR MAX TEMP:  86;

LANSING        SUNNY     84  62  47 W6        30.00S
6HR MIN TEMP:  83; 6HR MAX TEMP:  87;

LAPEER         FAIR      83  62  48 CALM      29.99S
6HR MIN TEMP:  83; 6HR MAX TEMP:  88;

MASON          SUNNY     83  61  46 W3        30.01R
MONROE         CLEAR     80  62  54 S7        30.00R
6HR MIN TEMP:  80; 6HR MAX TEMP:  83;

PONTIAC        PTCLDY    83  59  44 NW7       30.00R
6HR MIN TEMP:  83; 6HR MAX TEMP:  88;

PORT HURON     CLEAR     79  63  57 SW3       29.99R
TRI CITIES     SUNNY     84  61  45 SW6       29.98S
6HR MIN TEMP:  83; 6HR MAX TEMP:  88;

MIDLAND        FAIR      84  60  45 SW5       29.96S
6HR MIN TEMP:  83; 6HR MAX TEMP:  88;

TROY           CLOUDY    86  59  40 SE9       30.01R
SAGINAW HB     CLEAR     84  57  39 W5        29.97S
$$
MIZ043>046-050>051-056>058-064>065-071>073-077>080-270100-
SOUTHWEST LOWER MICHIGAN

CITY           SKY/WX    TMP DP  RH WIND       PRES   REMARKS
BATTLE CREEK   PTSUNNY   80  67  64 W8        30.02R
6HR MIN TEMP:  79; 6HR MAX TEMP:  83;

BENTON HARBOR  SUNNY     80  64  58 VRB3      30.01S
6HR MIN TEMP:  80; 6HR MAX TEMP:  84;

BIG RAPIDS     SUNNY     81  61  50 W6        30.01R
6HR MIN TEMP:  81; 6HR MAX TEMP:  86;

COLDWATER      SUNNY     82  59  45 CALM      30.02R
6HR MIN TEMP:  82; 6HR MAX TEMP:  85;

FREMONT        FAIR      81  60  48 W5        30.01R
HOLLAND        SUNNY     79  64  60 W6        30.02S
6HR MIN TEMP:  79; 6HR MAX TEMP:  84;

GRAND RAPIDS   MOSUNNY   82  61  48 W13       30.01R
6HR MIN TEMP:  82; 6HR MAX TEMP:  87;

IONIA          FAIR      82  61  48 W8        29.99S
6HR MIN TEMP:  82; 6HR MAX TEMP:  87;

KALAMAZOO      PTSUNNY   82  64  54 NW10      30.02R
6HR MIN TEMP:  80; 6HR MAX TEMP:  86;

LUDINGTON      SUNNY     78  63  58 SW6       29.99S
6HR MIN TEMP:  78; 6HR MAX TEMP:  82;

MARSHALL       SUNNY     82  62  51 SW3       30.01R
6HR MIN TEMP:  82; 6HR MAX TEMP:  85;

MOUNT PLEASANT SUNNY     85  60  43 W5        29.98R
6HR MIN TEMP:  85; 6HR MAX TEMP:  88;

MUSKEGON       MOSUNNY   80  64  58 W6        30.01S
6HR MIN TEMP:  79; 6HR MAX TEMP:  85;

SOUTH HAVEN    SUNNY     78  66  64 NW5       30.02R
$$
MIZ016>042-270100-
NORTHERN LOWER MICHIGAN

CITY           SKY/WX    TMP DP  RH WIND       PRES   REMARKS
ALPENA         SUNNY     79  63  57 SE5       29.95S
6HR MIN TEMP:  79; 6HR MAX TEMP:  92;

BEAVER ISLAND  SUNNY     77  65  65 SW10      29.93F
6HR MIN TEMP:  77; 6HR MAX TEMP:  80;

BELLAIRE       SUNNY     83  60  45 CALM      29.94F
6HR MIN TEMP:  83; 6HR MAX TEMP:  86;

CADILLAC       SUNNY     80  57  45 W6        30.01R
CHARLEVOIX     MOSUNNY   81  64  56 SW7       29.97S
FRANKFORT      SUNNY     79  60  53 CALM      29.96F
GAYLORD        SUNNY     82  58  43 W9        29.98F
6HR MIN TEMP:  82; 6HR MAX TEMP:  86;

GRAYLING       SUNNY     84  59  42 W7        29.99S
HARBOR SPRINGS PTSUNNY   80  64  58 W6        29.94F
HOUGHTON LAKE  SUNNY     83  59  44 W10       29.99S
6HR MIN TEMP:  82; 6HR MAX TEMP:  86;

MANISTEE       SUNNY     82  62  50 S6        29.97F
OSCODA         PTCLDY    82  62  50 S14       29.93F
6HR MIN TEMP:  81; 6HR MAX TEMP:  86;

PELLSTON       PTSUNNY   80  61  52 W8        29.94F
6HR MIN TEMP:  79; 6HR MAX TEMP:  85;

ROGERS CITY    SUNNY     78  59  51 E3        29.95S
TRAVERSE CITY  MOSUNNY   84  61  45 SW8       29.93F
6HR MIN TEMP:  84; 6HR MAX TEMP:  91;

$$
MIZ007>008-015-270100-
EASTERN UPPER MICHIGAN

CITY           SKY/WX    TMP DP  RH WIND       PRES   REMARKS
KINROSS        SUNNY     77  63  61 W8        29.93F
6HR MIN TEMP:  77; 6HR MAX TEMP:  86;

MACKINAC ISLAN SUNNY     76  64  67 SW7       29.93S
6HR MIN TEMP:  76; 6HR MAX TEMP:  78;

S. S. MARIE    SUNNY     77  64  64 SW3       29.91F
6HR MIN TEMP:  77; 6HR MAX TEMP:  87;

$$
MIZ004>006-011>014-085-270100-
CENTRAL UPPER MICHIGAN

CITY           SKY/WX    TMP DP  RH WIND       PRES   REMARKS
MANISTIQUE     SUNNY     73  68  85 S5        29.91S
6HR MIN TEMP:  73; 6HR MAX TEMP:  79;

ESCANABA       SUNNY     81  68  65 S12G17    29.89R
6HR MIN TEMP:  81; 6HR MAX TEMP:  82;

MENOMINEE      SUNNY    N/A N/A N/A SW7       29.93
SAWYER-GWINN   PTSUNNY   72  66  83 N12       29.94R
$$
MIZ001>003-009>011-084-270100-
WESTERN UPPER MICHIGAN

CITY           SKY/WX    TMP DP  RH WIND       PRES   REMARKS
IRON MOUNTAIN  SUNNY     86  62  44 W7        29.92S
6HR MIN TEMP:  86; 6HR MAX TEMP:  91;

HOUGHTON       PTSUNNY   77  65  66 NW14      29.92S
6HR MIN TEMP:  75; 6HR MAX TEMP:  85;

COPPER HARBOR    N/A     74  66  76 N10       29.89R
6HR MIN TEMP:  69; 6HR MAX TEMP:  81;

IRONWOOD       CLOUDY    79  68  69 NW7       29.92S
$$

ABBREVIATIONS USED IN REMARKS
   TC - TEMPERATURE IN CELSIUS
  WCI - WIND CHILL INDEX
   HX - HEAT INDEX
  VSB - VISIBILITY





USA.gov is the U.S. government's official web portal to all federal, state and local government web resources and services.